Retour au catalogue

TITAN 3C TRANSTAGE R/B

ActifGEO
NORAD 8516·ROCKET BODY·🇺🇸 United States

Lancé Dec 14, 1975 depuis Cape Canaveral Space Force Station

Loading…

TLE

FraisSource: Space-Track

Époque: Sep 14, 2026, 01:33 UTC

1 08516U 75118C   26257.06512617 -.00000032  00000-0  00000-0 0  9998
2 08516   2.0518 255.5909 0011638 226.6723 132.5456  1.00552310 26674

Suivez TITAN 3C TRANSTAGE R/B en temps réel avec AllMySat

Download on the App Store